Estación municipal de Cànoves i Samalús (Vallès Oriental, P.N.del Montseny)

Consulta los datos en tiempo real de la estación municipal de Cànoves i Samalús





Hora UTC 02:50
Temperatura 23.3 ºC
Humedad 61.0 %
Presión 1019.7 hPa
Pluja 0.0 mm
Velocidad viento 2.7 km/h
Dirección viento NW
Radiación solar 0.1 W/m²

Webcam

Datos diarios 2026-09-05



Hora UTC (invierno +1h; verano +2h)
Temperatura (ºC) Humedad (%) Presión (hPa) Velocidad viento (km/h) Precipitación (mm) Radiación solar (W/m²)
Hora UTC Aire Humedad Presión Vel. Dir. Vel. Max Dir. Intent. máx 5 min. Rad. Sol.
00:05 23.8 62.6 1019.7 2.7 WNW 2.7 WNW 0.0 0.1
00:10 23.7 62.3 1019.7 2.7 NNW 4.6 NNW 0.0 0.1
00:15 23.8 62.2 1019.7 2.2 NW 3.9 WNW 0.0 0.1
00:20 23.7 62.0 1019.6 3.8 NNW 5.3 NNW 0.0 0.1
00:25 23.6 61.9 1019.6 3.4 NW 5.3 WNW 0.0 0.1
00:30 23.6 61.6 1019.6 2.6 WNW 4.6 W 0.0 0.1
00:35 23.7 61.5 1019.7 2.7 NW 4.9 WNW 0.0 0.1
00:40 23.7 61.3 1019.7 1.5 WNW 3.5 WNW 0.0 0.1
00:45 23.6 61.2 1019.6 0.8 SSW 2.1 SSW 0.0 0.1
00:50 23.4 61.9 1019.6 0.0 NNE 0.0 S 0.0 0.1
00:55 23.2 62.5 1019.7 1.8 SSW 4.6 S 0.0 0.1
01:00 23.0 63.8 1019.7 1.6 S 3.2 SSW 0.0 0.1
01:05 22.9 64.3 1019.7 1.0 WNW 2.8 N 0.0 0.1
01:10 22.8 64.3 1019.6 0.7 WNW 2.5 NW 0.0 0.1
01:15 22.7 64.1 1019.6 0.0 W 1.1 W 0.0 0.1
01:20 22.5 65.0 1019.6 0.4 SE 3.2 SSE 0.0 0.1
01:25 22.3 66.9 1019.6 1.2 S 2.5 SW 0.0 0.1
01:30 22.0 67.0 1019.7 1.3 S 3.2 SSW 0.0 0.1
01:35 22.0 67.6 1019.6 0.8 SSE 2.1 SSE 0.0 0.1
01:40 21.9 67.7 1019.6 1.6 NW 6.0 ENE 0.0 0.1
01:45 22.0 66.9 1019.6 2.2 NW 4.9 NW 0.0 0.1
01:50 22.5 65.2 1019.6 1.6 WNW 3.5 WNW 0.0 0.1
01:55 22.7 64.4 1019.7 1.0 W 3.5 WSW 0.0 0.1
02:00 22.7 64.5 1019.7 0.9 NNE 4.9 NE 0.0 0.1
02:05 22.6 64.1 1019.7 2.1 NW 4.6 N 0.0 0.1
02:10 22.9 63.5 1019.7 3.2 NNW 5.6 NNW 0.0 0.1
02:15 22.9 63.3 1019.7 3.1 NNW 5.3 NNW 0.0 0.1
02:20 22.9 63.4 1019.7 4.1 NNW 6.0 N 0.0 0.1
02:25 23.0 63.0 1019.7 3.1 NNW 6.0 NNW 0.0 0.1
02:30 23.0 62.8 1019.7 2.9 NNW 4.6 NW 0.0 0.1
02:35 23.1 62.3 1019.7 2.4 NW 3.9 NW 0.0 0.1
02:40 23.2 61.7 1019.7 2.0 NNW 3.5 NW 0.0 0.1
02:45 23.2 61.6 1019.7 3.7 NW 7.1 NNW 0.0 0.1
02:50 23.3 61.0 1019.7 2.7 NW 5.3 N 0.0 0.1
Máxima 23.8 67.7 1019.7 4.1 NNW 7.1 NNW 0.0 0.1
Mínima 20 61.0 1019.6
Total 0.0